Surface/Precipitation History
08/22/2019 22:42  to  8/23/2019 22:42
Change End Date:
Date/Time
(MDT)
Sf
Temp Chem Water Layer Surface Precipitation
Sfc Pvt Sub Frz Factor Pct Dpth DpthThk IcePct Cond Salin FI Type Intens Accum Rate
08/23/2019 22:41 Dry 71.6F - 79F - - - - - - 1 mhos 45 - None None - -
08/23/2019 22:37 Dry 71.8F - 79F - - - - - - 1 mhos 45 - None None - -
08/23/2019 22:31 Dry 72.1F - 79F - - - - - - 1 mhos 45 - None None - -
08/23/2019 22:22 Dry 72.3F - 79F - - - - - - 1 mhos 45 - None None - -
08/23/2019 22:20 Dry 72.3F - 79F - - - - - - 1 mhos 45 - None None - -
08/23/2019 22:10 Dry 72.7F - 79F - - - - - - 1 mhos 45 - None None - -
08/23/2019 22:07 Dry 72.9F - 79F - - - - - - 1 mhos 45 - None None - -
08/23/2019 22:00 Dry 73.0F - 79F - - - - - - 1 mhos 45 - None None - -
08/23/2019 21:52 Dry 73.4F - 79F - - - - - - 1 mhos 45 - None None - -
08/23/2019 21:50 Dry 73.4F - 79F - - - - - - 1 mhos 45 - None None - -
08/23/2019 21:40 Dry 73.8F - 79F - - - - - - 1 mhos 45 - None None - -
08/23/2019 21:37 Dry 73.8F - 79F - - - - - - 1 mhos 44 - None None - -
08/23/2019 21:30 Dry 74.1F - 79F - - - - - - 1 mhos 44 - None None - -
08/23/2019 21:22 Dry 74.3F - 79F - - - - - - 1 mhos 44 - None None - -
08/23/2019 21:20 Dry 74.5F - 79F - - - - - - 1 mhos 44 - None None - -
Date/Time
(MDT)
Sf
Temp Chem Water Layer Surface Precipitation
Sfc Pvt Sub Frz Factor Pct Dpth DpthThk IcePct Cond Salin FI Type Intens Accum Rate
08/23/2019 21:10 Dry 75.0F - 79F - - - - - - 1 mhos 44 - None None - -
08/23/2019 21:07 Dry 75.0F - 79F - - - - - - 1 mhos 44 - None None - -
08/23/2019 21:00 Dry 75.4F - 79F - - - - - - 1 mhos 42 - None None - -
08/23/2019 20:52 Dry 75.7F - 79F - - - - - - 1 mhos 42 - None None - -
08/23/2019 20:50 Dry 75.9F - 79F - - - - - - 1 mhos 42 - None None - -
08/23/2019 20:40 Dry 76.5F - 79F - - - - - - 1 mhos 42 - None None - -
08/23/2019 20:37 Dry 76.8F - 79F - - - - - - 1 mhos 42 - None None - -
08/23/2019 20:30 Dry 77.4F - 79F - - - - - - 1 mhos 41 - None None - -
08/23/2019 20:22 Dry 77.7F - 78F - - - - - - 1 mhos 41 - None None - -
08/23/2019 20:20 Dry 77.9F - 78F - - - - - - 1 mhos 41 - None None - -
08/23/2019 20:10 Dry 79.0F - 78F - - - - - - 1 mhos 41 - None None - -
08/23/2019 20:07 Dry 79.3F - 78F - - - - - - 1 mhos 41 - None None - -
08/23/2019 20:00 Dry 80.2F - 78F - - - - - - 1 mhos 40 - None None - -
08/23/2019 19:52 Dry 81.1F - 78F - - - - - - 1 mhos 40 - None None - -
08/23/2019 19:50 Dry 81.3F - 78F - - - - - - 1 mhos 40 - None None - -
Date/Time
(MDT)
Sf
Temp Chem Water Layer Surface Precipitation
Sfc Pvt Sub Frz Factor Pct Dpth DpthThk IcePct Cond Salin FI Type Intens Accum Rate
08/23/2019 19:40 Dry 82.8F - 78F - - - - - - 1 mhos 40 - None None - -
08/23/2019 19:37 Dry 83.1F - 78F - - - - - - 1 mhos 39 - None None - -
08/23/2019 19:30 Dry 84.0F - 78F - - - - - - 1 mhos 39 - None None - -
08/23/2019 19:22 Dry 85.3F - 78F - - - - - - 1 mhos 39 - None None - -
08/23/2019 19:20 Dry 85.8F - 78F - - - - - - 1 mhos 39 - None None - -
08/23/2019 19:10 Dry 87.4F - 78F - - - - - - 1 mhos 38 - None None - -
08/23/2019 19:07 Dry 87.6F - 78F - - - - - - 1 mhos 38 - None None - -
08/23/2019 19:00 Dry 88.9F - 78F - - - - - - 1 mhos 38 - None None - -
08/23/2019 18:52 Dry 90.0F - 78F - - - - - - 1 mhos 37 - None None - -
08/23/2019 18:50 Dry 90.0F - 78F - - - - - - 1 mhos 37 - None None - -
08/23/2019 18:40 Dry 91.6F - 78F - - - - - - 1 mhos 37 - None None - -
08/23/2019 18:37 Dry 91.6F - 78F - - - - - - 1 mhos 37 - None None - -
08/23/2019 18:30 Dry 92.7F - 78F - - - - - - 1 mhos 36 - None None - -
08/23/2019 18:22 Dry 93.7F - 78F - - - - - - 1 mhos 36 - None None - -
08/23/2019 18:20 Dry 93.9F - 78F - - - - - - 1 mhos 36 - None None - -
Date/Time
(MDT)
Sf
Temp Chem Water Layer Surface Precipitation
Sfc Pvt Sub Frz Factor Pct Dpth DpthThk IcePct Cond Salin FI Type Intens Accum Rate
08/23/2019 18:10 Dry 95.5F - 78F - - - - - - 1 mhos 36 - None None - -
08/23/2019 18:07 Dry 95.5F - 78F - - - - - - 1 mhos 36 - None None - -
08/23/2019 18:00 Dry 97.0F - 78F - - - - - - 1 mhos 35 - None None - -
08/23/2019 17:52 Dry 97.5F - 78F - - - - - - 1 mhos 35 - None None - -
08/23/2019 17:50 Dry 98.1F - 78F - - - - - - 1 mhos 35 - None None - -
08/23/2019 17:39 Dry 99.5F - 78F - - - - - - 1 mhos 35 - None None - -
08/23/2019 17:37 Dry 99.5F - 78F - - - - - - 1 mhos 35 - None None - -
08/23/2019 17:29 Dry 101.5F - 78F - - - - - - 1 mhos 34 - None None - -
08/23/2019 17:22 Dry 101.8F - 78F - - - - - - 1 mhos 34 - None None - -
08/23/2019 17:19 Dry 101.5F - 78F - - - - - - 1 mhos 34 - None None - -
08/23/2019 17:09 Dry 102.6F - 78F - - - - - - 1 mhos 37 - None None - -
08/23/2019 17:07 Dry 102.7F - 78F - - - - - - 1 mhos 37 - None None - -
08/23/2019 16:59 Dry 103.8F - 78F - - - - - - 0 mhos 23 - None None - -
08/23/2019 16:52 Dry 104.5F - 78F - - - - - - 1 mhos 33 - None None - -
08/23/2019 16:49 Dry 104.5F - 78F - - - - - - 1 mhos 34 - None None - -
Date/Time
(MDT)
Sf
Temp Chem Water Layer Surface Precipitation
Sfc Pvt Sub Frz Factor Pct Dpth DpthThk IcePct Cond Salin FI Type Intens Accum Rate
08/23/2019 16:39 Dry 104.4F - 78F - - - - - - 1 mhos 34 - None None - -
08/23/2019 16:37 Dry 104.7F - 78F - - - - - - 1 mhos 34 - None None - -
08/23/2019 16:29 Dry 105.1F - 78F - - - - - - 1 mhos 33 - None None - -
08/23/2019 16:22 Dry 102.9F - 78F - - - - - - 1 mhos 34 - None None - -
08/23/2019 16:19 Dry 104.4F - 78F - - - - - - 1 mhos 34 - None None - -
08/23/2019 16:09 Dry 104.4F - 78F - - - - - - 1 mhos 34 - None None - -
08/23/2019 16:07 Dry 103.1F - 78F - - - - - - 1 mhos 34 - None None - -
08/23/2019 15:59 Dry 102.4F - 78F - - - - - - 1 mhos 34 - None None - -
08/23/2019 15:52 Dry 107.4F - 78F - - - - - - 1 mhos 33 - None None - -
08/23/2019 15:49 Dry 107.2F - 78F - - - - - - 1 mhos 33 - None None - -
08/23/2019 15:39 Dry 107.6F - 78F - - - - - - 1 mhos 33 - None None - -
08/23/2019 15:37 Dry 107.6F - 78F - - - - - - 1 mhos 33 - None None - -
08/23/2019 15:29 Dry 103.8F - 78F - - - - - - 1 mhos 34 - None None - -
08/23/2019 15:22 Dry 100.9F - 78F - - - - - - 1 mhos 35 - None None - -
08/23/2019 15:19 Dry 101.1F - 78F - - - - - - 1 mhos 35 - None None - -
Date/Time
(MDT)
Sf
Temp Chem Water Layer Surface Precipitation
Sfc Pvt Sub Frz Factor Pct Dpth DpthThk IcePct Cond Salin FI Type Intens Accum Rate
08/23/2019 15:09 Dry 101.8F - 78F - - - - - - 1 mhos 34 - None None - -
08/23/2019 15:07 Dry 102.0F - 78F - - - - - - 1 mhos 34 - None None - -
08/23/2019 14:59 Dry 108.3F - 78F - - - - - - 1 mhos 33 - None None - -
08/23/2019 14:52 Dry 103.1F - 78F - - - - - - 1 mhos 34 - None None - -
08/23/2019 14:49 Dry 103.5F - 78F - - - - - - 1 mhos 34 - None None - -
08/23/2019 14:39 Dry 111.9F - 78F - - - - - - 1 mhos 32 - None None - -
08/23/2019 14:37 Dry 111.2F - 78F - - - - - - 1 mhos 32 - None None - -
08/23/2019 14:29 Dry 102.0F - 78F - - - - - - 1 mhos 34 - None None - -
08/23/2019 14:22 Dry 101.7F - 78F - - - - - - 1 mhos 34 - None None - -
08/23/2019 14:19 Dry 103.6F - 78F - - - - - - 1 mhos 34 - None None - -
08/23/2019 14:09 Dry 106.5F - 78F - - - - - - 1 mhos 33 - None None - -
08/23/2019 14:07 Dry 109.8F - 78F - - - - - - 1 mhos 32 - None None - -
08/23/2019 13:59 Dry 103.1F - 78F - - - - - - 1 mhos 34 - None None - -
08/23/2019 13:52 Dry 104.7F - 78F - - - - - - 1 mhos 34 - None None - -
08/23/2019 13:49 Dry 107.8F - 78F - - - - - - 1 mhos 33 - None None - -
Date/Time
(MDT)
Sf
Temp Chem Water Layer Surface Precipitation
Sfc Pvt Sub Frz Factor Pct Dpth DpthThk IcePct Cond Salin FI Type Intens Accum Rate
08/23/2019 13:39 Dry 97.7F - 79F - - - - - - 1 mhos 35 - None None - -
08/23/2019 13:37 Dry 97.0F - 79F - - - - - - 1 mhos 35 - None None - -
08/23/2019 13:28 Dry 93.4F - 79F - - - - - - 1 mhos 36 - None None - -
08/23/2019 13:22 Dry 96.6F - 79F - - - - - - 1 mhos 36 - None None - -
08/23/2019 13:18 Dry 99.3F - 79F - - - - - - 1 mhos 37 - None None - -
08/23/2019 13:08 Dry 92.3F - 79F - - - - - - 1 mhos 37 - None None - -
08/23/2019 13:07 Dry 90.9F - 79F - - - - - - 1 mhos 37 - None None - -
08/23/2019 12:58 Dry 89.2F - 79F - - - - - - 1 mhos 37 - None None - -
08/23/2019 12:52 Dry 86.4F - 79F - - - - - - 1 mhos 38 - None None - -
08/23/2019 12:48 Dry 86.4F - 79F - - - - - - 1 mhos 38 - None None - -
08/23/2019 12:38 Dry 86.4F - 79F - - - - - - 1 mhos 38 - None None - -
08/23/2019 12:37 Dry 85.6F - 79F - - - - - - 1 mhos 39 - None None - -
08/23/2019 12:28 Dry 84.6F - 79F - - - - - - 1 mhos 39 - None None - -
08/23/2019 12:22 Dry 83.8F - 79F - - - - - - 1 mhos 39 - None None - -
08/23/2019 12:18 Dry 84.2F - 79F - - - - - - 1 mhos 39 - None None - -
Date/Time
(MDT)
Sf
Temp Chem Water Layer Surface Precipitation
Sfc Pvt Sub Frz Factor Pct Dpth DpthThk IcePct Cond Salin FI Type Intens Accum Rate
08/23/2019 12:08 Dry 85.6F - 79F - - - - - - 1 mhos 39 - None None - -
08/23/2019 12:07 Dry 85.6F - 79F - - - - - - 1 mhos 39 - None None - -
08/23/2019 11:58 Dry 84.7F - 79F - - - - - - 1 mhos 39 - None None - -
08/23/2019 11:52 Dry 85.3F - 79F - - - - - - 1 mhos 39 - None None - -
08/23/2019 11:48 Dry 86.4F - 79F - - - - - - 1 mhos 38 - None None - -
08/23/2019 11:38 Dry 88.9F - 79F - - - - - - 1 mhos 38 - None None - -
08/23/2019 11:37 Dry 89.6F - 79F - - - - - - 1 mhos 37 - None None - -
08/23/2019 11:28 Dry 92.5F - 79F - - - - - - 1 mhos 37 - None None - -
08/23/2019 11:22 Dry 87.8F - 79F - - - - - - 1 mhos 38 - None None - -
08/23/2019 11:18 Dry 86.7F - 79F - - - - - - 1 mhos 38 - None None - -
08/23/2019 11:08 Dry 88.0F - 79F - - - - - - 1 mhos 38 - None None - -
08/23/2019 11:07 Dry 88.0F - 79F - - - - - - 1 mhos 38 - None None - -
08/23/2019 10:58 Dry 82.4F - 79F - - - - - - 1 mhos 40 - None None - -
08/23/2019 10:52 Dry 82.0F - 79F - - - - - - 1 mhos 40 - None None - -
08/23/2019 10:48 Dry 80.4F - 79F - - - - - - 1 mhos 40 - None None - -
Date/Time
(MDT)
Sf
Temp Chem Water Layer Surface Precipitation
Sfc Pvt Sub Frz Factor Pct Dpth DpthThk IcePct Cond Salin FI Type Intens Accum Rate
08/23/2019 10:38 Dry 77.9F - 79F - - - - - - 1 mhos 41 - None None - -
08/23/2019 10:37 Dry 77.9F - 79F - - - - - - 1 mhos 41 - None None - -
08/23/2019 10:28 Dry 78.4F - 79F - - - - - - 1 mhos 41 - None None - -
08/23/2019 10:22 Dry 78.8F - 79F - - - - - - 1 mhos 41 - None None - -
08/23/2019 10:17 Dry 81.1F - 79F - - - - - - 1 mhos 40 - None None - -
08/23/2019 10:07 Dry 89.4F - 79F - - - - - - 1 mhos 38 - None None - -
08/23/2019 10:07 Dry 89.4F - 79F - - - - - - 1 mhos 38 - None None - -
08/23/2019 09:57 Dry 77.7F - 79F - - - - - - 1 mhos 41 - None None - -
08/23/2019 09:52 Dry 78.3F - 79F - - - - - - 1 mhos 41 - None None - -
08/23/2019 09:47 Dry 80.1F - 79F - - - - - - 1 mhos 40 - None None - -
08/23/2019 09:37 Dry 75.7F - 80F - - - - - - 1 mhos 42 - None None - -
08/23/2019 09:37 Dry 75.7F - 80F - - - - - - 1 mhos 42 - None None - -
08/23/2019 09:27 Dry 75.4F - 80F - - - - - - 1 mhos 42 - None None - -
08/23/2019 09:22 Dry 75.4F - 80F - - - - - - 1 mhos 42 - None None - -
08/23/2019 09:17 Dry 74.5F - 80F - - - - - - 1 mhos 42 - None None - -
Date/Time
(MDT)
Sf
Temp Chem Water Layer Surface Precipitation
Sfc Pvt Sub Frz Factor Pct Dpth DpthThk IcePct Cond Salin FI Type Intens Accum Rate
08/23/2019 09:07 Dry 72.3F - 80F - - - - - - 1 mhos 43 - None None - -
08/23/2019 09:07 Dry 72.3F - 80F - - - - - - 1 mhos 43 - None None - -
08/23/2019 08:57 Dry 69.8F - 80F - - - - - - 1 mhos 44 - None None - -
08/23/2019 08:52 Dry 68.7F - 80F - - - - - - 1 mhos 45 - None None - -
08/23/2019 08:47 Dry 68.0F - 80F - - - - - - 1 mhos 45 - None None - -
08/23/2019 08:37 Dry 67.6F - 80F - - - - - - 1 mhos 45 - None None - -
08/23/2019 08:37 Dry 67.6F - 80F - - - - - - 1 mhos 45 - None None - -
08/23/2019 08:27 Dry 66.6F - 80F - - - - - - 1 mhos 45 - None None - -
08/23/2019 08:22 Dry 66.7F - 80F - - - - - - 1 mhos 45 - None None - -
08/23/2019 08:17 Dry 66.9F - 80F - - - - - - 1 mhos 45 - None None - -
08/23/2019 08:07 Dry 67.8F - 80F - - - - - - 1 mhos 45 - None None - -
08/23/2019 08:07 Dry 67.8F - 80F - - - - - - 1 mhos 45 - None None - -
08/23/2019 07:57 Dry 67.6F - 80F - - - - - - 1 mhos 45 - None None - -
08/23/2019 07:52 Dry 67.5F - 80F - - - - - - 1 mhos 45 - None None - -
08/23/2019 07:46 Other - - 80F - - - - - - - - - Yes - - -
Date/Time
(MDT)
Sf
Temp Chem Water Layer Surface Precipitation
Sfc Pvt Sub Frz Factor Pct Dpth DpthThk IcePct Cond Salin FI Type Intens Accum Rate
08/23/2019 07:37 Dry 67.5F - 80F - - - - - - 1 mhos 45 - None None - -
08/23/2019 07:35 Dry 67.5F - 80F - - - - - - 1 mhos 45 - None None - -
08/23/2019 07:25 Dry 67.5F - 80F - - - - - - 1 mhos 45 - None None - -
08/23/2019 07:22 Dry 67.5F - 80F - - - - - - 1 mhos 45 - None None - -
08/23/2019 07:15 Dry 67.3F - 80F - - - - - - 1 mhos 45 - None None - -
08/23/2019 07:07 Dry 66.9F - 80F - - - - - - 1 mhos 45 - None None - -
08/23/2019 07:05 Dry 66.9F - 80F - - - - - - 0 mhos 0 - None None - -
08/23/2019 06:55 Dry 66.4F - 80F - - - - - - 0 mhos 0 - None None - -
08/23/2019 06:52 Dry 66.2F - 80F - - - - - - 0 mhos 0 - None None - -
08/23/2019 06:45 Dry 65.8F - 80F - - - - - - 0 mhos 0 - None None - -
08/23/2019 06:37 Dry 65.7F - 80F - - - - - - 0 mhos 0 - None None - -
08/23/2019 06:35 Dry 65.7F - 80F - - - - - - 0 mhos 0 - None None - -
08/23/2019 06:25 Dry 65.5F - 80F - - - - - - 0 mhos 0 - None None - -
08/23/2019 06:22 Dry 65.3F - 80F - - - - - - 0 mhos 0 - None None - -
08/23/2019 06:15 Dry 65.1F - 80F - - - - - - 0 mhos 0 - None None - -
Date/Time
(MDT)
Sf
Temp Chem Water Layer Surface Precipitation
Sfc Pvt Sub Frz Factor Pct Dpth DpthThk IcePct Cond Salin FI Type Intens Accum Rate
08/23/2019 06:07 Dry 64.9F - 80F - - - - - - 0 mhos 0 - None None - -
08/23/2019 06:05 Dry 64.8F - 80F - - - - - - 0 mhos 0 - None None - -
08/23/2019 05:55 Dry 63.9F - 80F - - - - - - 0 mhos 0 - None None - -
08/23/2019 05:52 Dry 63.5F - 80F - - - - - - 0 mhos 0 - None None - -
08/23/2019 05:45 Dry 63.9F - 80F - - - - - - 0 mhos 0 - None None - -
08/23/2019 05:37 Dry 63.9F - 80F - - - - - - 0 mhos 0 - None None - -
08/23/2019 05:35 Dry 63.9F - 81F - - - - - - 0 mhos 0 - None None - -
08/23/2019 05:25 Dry 64.2F - 80F - - - - - - 0 mhos 0 - None None - -
08/23/2019 05:22 Dry 64.4F - 81F - - - - - - 0 mhos 0 - None None - -
08/23/2019 05:15 Dry 64.8F - 81F - - - - - - 0 mhos 0 - None None - -
08/23/2019 05:07 Dry 65.1F - 81F - - - - - - 0 mhos 0 - None None - -
08/23/2019 05:05 Dry 65.1F - 81F - - - - - - 0 mhos 0 - None None - -
08/23/2019 04:55 Dry 65.1F - 81F - - - - - - 0 mhos 0 - None None - -
08/23/2019 04:52 Dry 64.9F - 81F - - - - - - 0 mhos 0 - None None - -
08/23/2019 04:45 Dry 64.6F - 81F - - - - - - 0 mhos 0 - None None - -
Date/Time
(MDT)
Sf
Temp Chem Water Layer Surface Precipitation
Sfc Pvt Sub Frz Factor Pct Dpth DpthThk IcePct Cond Salin FI Type Intens Accum Rate
08/23/2019 04:37 Dry 63.9F - 81F - - - - - - 0 mhos 0 - None None - -
08/23/2019 04:35 Dry 63.7F - 81F - - - - - - 0 mhos 0 - None None - -
08/23/2019 04:25 Wet 63.5F - 81F 32F 5 0% 0.00 in - 0% 0 mhos 0 - None None - -
08/23/2019 04:22 Wet 63.5F - 81F 32F 5 0% 0.00 in - 0% 0 mhos 0 - None None - -
08/23/2019 04:14 Wet 63.7F - 81F 32F 5 0% 0.00 in - 0% 0 mhos 0 - None None - -
08/23/2019 04:07 Wet 64.0F - 81F 32F 5 0% 0.00 in - 0% 0 mhos 0 - None None - -
08/23/2019 04:04 Wet 64.0F - 81F 32F 5 0% 0.00 in - 0% 0 mhos 0 - None None - -
08/23/2019 03:54 Wet 64.6F - 81F 32F 5 0% 0.00 in - 0% 0 mhos 0 - None None - -
08/23/2019 03:52 Wet 64.6F - 81F 32F 5 0% 0.00 in - 0% 0 mhos 0 - None None - -
08/23/2019 03:44 Wet 64.6F - 81F 32F 5 0% 0.00 in - 0% 0 mhos 0 - None None - -
08/23/2019 03:37 Wet 64.9F - 81F 32F 5 0% 0.00 in - 0% 0 mhos 0 - None None - -
08/23/2019 03:34 Wet 64.9F - 81F 32F 5 0% 0.00 in - 0% 0 mhos 0 - None None - -
08/23/2019 03:24 Wet 65.1F - 81F 32F 5 0% 0.00 in - 0% 0 mhos 0 - None None - -
08/23/2019 03:22 Wet 65.3F - 81F 32F 5 0% 0.00 in - 0% 0 mhos 0 - None None - -
08/23/2019 03:14 Wet 64.9F - 81F 32F 5 0% 0.00 in - 0% 0 mhos 0 - None None - -
Date/Time
(MDT)
Sf
Temp Chem Water Layer Surface Precipitation
Sfc Pvt Sub Frz Factor Pct Dpth DpthThk IcePct Cond Salin FI Type Intens Accum Rate
08/23/2019 03:07 Wet 64.8F - 81F 32F 5 0% 0.00 in - 0% 0 mhos 0 - None None - -
08/23/2019 03:04 Wet 64.8F - 81F 32F 5 0% 0.00 in - 0% 0 mhos 0 - None None - -
08/23/2019 02:54 Wet 64.6F - 81F 32F 5 0% 0.00 in - 0% 0 mhos 0 - None None - -
08/23/2019 02:52 Wet 64.6F - 81F 32F 5 0% 0.00 in - 0% 0 mhos 0 - None None - -
08/23/2019 02:44 Wet 64.0F - 81F 32F 5 0% 0.00 in - 0% 0 mhos 6 - None None - -
08/23/2019 02:37 Wet 64.0F - 81F 32F 5 0% 0.00 in - 0% 0 mhos 7 - None None - -
08/23/2019 02:34 Wet 64.2F - 81F 32F 5 0% 0.00 in - 0% 0 mhos 7 - None None - -
08/23/2019 02:24 Wet 63.9F - 81F 32F 5 0% 0.00 in - 0% 0 mhos 7 - None None - -
08/23/2019 02:22 Wet 63.9F - 81F 32F 5 0% 0.00 in - 0% 0 mhos 7 - None None - -
08/23/2019 02:14 Wet 63.7F - 81F 32F 5 0% 0.00 in - 0% 0 mhos 0 - None None - -
08/23/2019 02:07 Wet 63.9F - 81F 32F 5 0% 0.00 in - 0% 0 mhos 0 - None None - -
08/23/2019 02:04 Wet 63.7F - 81F 32F 5 0% 0.00 in - 0% 0 mhos 0 - None None - -
08/23/2019 01:54 Wet 63.5F - 81F 32F 5 0% 0.00 in - 0% 0 mhos 0 - None None - -
08/23/2019 01:52 Wet 63.5F - 81F 32F 5 0% 0.00 in - 0% 0 mhos 0 - None None - -
08/23/2019 01:44 Wet 63.5F - 81F 32F 5 0% 0.00 in - 0% 0 mhos 0 - None None - -
Date/Time
(MDT)
Sf
Temp Chem Water Layer Surface Precipitation
Sfc Pvt Sub Frz Factor Pct Dpth DpthThk IcePct Cond Salin FI Type Intens Accum Rate
08/23/2019 01:37 Wet 63.5F - 81F 32F 5 0% 0.00 in - 0% 0 mhos 0 - None None - -
08/23/2019 01:34 Wet 63.5F - 81F 32F 5 0% 0.00 in - 0% 0 mhos 0 - None None - -
08/23/2019 01:24 Wet 63.3F - 81F 32F 5 0% 0.00 in - 0% 0 mhos 15 - Yes - - -
08/23/2019 01:22 Wet 63.3F - 81F 32F 5 0% 0.00 in - 0% 0 mhos 16 - Yes - - -
08/23/2019 01:14 Wet 63.3F - 81F 32F 5 0% 0.00 in - 0% 0 mhos 18 - Yes - - -
08/23/2019 01:07 Wet 63.5F - 81F 32F 5 0% 0.00 in - 0% 0 mhos 1 - Yes - - -
08/23/2019 01:03 Wet 63.5F - 81F 32F 5 0% 0.00 in - 0% 0 mhos 1 - Yes - - -
08/23/2019 00:53 Wet 63.7F - 81F 32F 5 0% 0.00 in - 0% 0 mhos 1 - Yes - - -
08/23/2019 00:52 Wet 63.7F - 81F 32F 5 0% 0.00 in - 0% 0 mhos 1 - Yes - - -
08/23/2019 00:43 Wet 63.9F - 81F 32F 5 0% 0.00 in - 0% 0 mhos 1 - Yes - - -
08/23/2019 00:37 Wet 64.0F - 81F 32F 5 0% 0.00 in - 0% 0 mhos 1 - Yes - - -
08/23/2019 00:33 Wet 64.2F - 81F 32F 5 0% 0.00 in - 0% 0 mhos 1 - Yes - - -
08/23/2019 00:23 Wet 64.4F - 81F 32F 5 0% 0.00 in - 0% 0 mhos 1 - Yes - - -
08/23/2019 00:22 Wet 64.4F - 81F 32F 5 0% 0.00 in - 0% 0 mhos 1 - Yes - - -
08/23/2019 00:13 Wet 64.4F - 81F 32F 5 0% 0.00 in - 0% 0 mhos 1 - Yes - - -
Date/Time
(MDT)
Sf
Temp Chem Water Layer Surface Precipitation
Sfc Pvt Sub Frz Factor Pct Dpth DpthThk IcePct Cond Salin FI Type Intens Accum Rate
08/23/2019 00:07 Wet 64.6F - 81F 32F 5 0% 0.00 in - 0% 0 mhos 1 - Yes - - -
08/23/2019 00:03 Wet 64.4F - 81F 32F 5 0% 0.00 in - 0% 0 mhos 1 - Yes - - -
08/22/2019 23:53 Wet 64.9F - 81F 32F 5 0% 0.00 in - 0% 0 mhos 2 - Yes - - -
08/22/2019 23:52 Wet 64.9F - 81F 32F 5 0% 0.00 in - 0% 0 mhos 1 - Yes - - -
08/22/2019 23:43 Wet 65.1F - 81F 32F 5 0% 0.00 in - 0% 0 mhos 2 - Yes - - -
08/22/2019 23:37 Wet 65.3F - 81F 32F 5 0% 0.00 in - 0% 0 mhos 0 - Yes - - -
08/22/2019 23:33 Wet 65.5F - 81F 32F 5 0% 0.00 in - 0% 0 mhos 0 - Yes - - -
08/22/2019 23:23 Wet 64.6F - 81F 32F 5 0% 0.00 in - 0% 0 mhos 0 - None None - -
08/22/2019 23:22 Wet 64.6F - 81F 32F 5 0% 0.00 in - 0% 0 mhos 0 - None None - -
08/22/2019 23:13 Wet 64.6F - 81F 32F 5 0% 0.00 in - 0% 0 mhos 0 - None None - -
08/22/2019 23:07 Wet 64.6F - 81F 32F 5 0% 0.00 in - 0% 0 mhos 0 - None None - -
08/22/2019 23:03 Wet 64.6F - 81F 32F 5 0% 0.00 in - 0% 0 mhos 0 - Yes - - -
08/22/2019 22:53 Wet 64.2F - 81F 32F 5 0% 0.00 in - 0% 0 mhos 12 - Yes - - -
08/22/2019 22:52 Wet 64.2F - 81F 32F 5 0% 0.00 in - 0% 0 mhos 14 - Yes - - -
08/22/2019 22:43 Wet 64.2F - 81F 32F 5 0% 0.00 in - 0% 0 mhos 22 - Yes - - -
Change End Date:

Copyright © 1998-2015 Vaisala, Inc.
All Rights Reserved
Send comments about the data to:
SCAN Web ® is a registered trademark of Vaisala, Inc.
SCAN Web Version 6.0